AFL6555 UHWW-UHHH

Flight info

Callsign AFL6555
Flight time 1h 8m
Altitude 31000
Route DOLMA2F DOLMA B356 TD B355 ARDEL ARDEL6F
Aircraft B738/M-SDE2E3FGHIRWXY/LB1

Departure

Time 2026-05-06 18:41
Airport Vladivostok International Airport (UHWW)

Arrival

Time 2026-05-06 19:49
Airport Khabarovsk Novy Airport (UHHH)
Time Latitude Longitude Altitude Speed Heading
2026-05-06 17:52 43.39716 132.16483 59 ft 0 kts 152°
2026-05-06 18:25 43.39730 132.16473 68 ft 4 kts 152°
2026-05-06 18:25 43.39754 132.16455 61 ft 4 kts 152°
2026-05-06 18:25 43.39778 132.16438 63 ft 4 kts 156°
2026-05-06 18:26 43.39800 132.16434 61 ft 4 kts 217°
2026-05-06 18:26 43.39815 132.16460 62 ft 2 kts 241°
2026-05-06 18:26 43.39817 132.16466 66 ft 0 kts 241°
2026-05-06 18:30 43.39816 132.16464 68 ft 3 kts 241°
2026-05-06 18:30 43.39784 132.16384 68 ft 11 kts 241°
2026-05-06 18:31 43.39746 132.16289 68 ft 11 kts 245°
2026-05-06 18:31 43.39774 132.16201 63 ft 11 kts 329°
2026-05-06 18:31 43.39839 132.16150 67 ft 11 kts 330°
2026-05-06 18:31 43.39892 132.16090 64 ft 10 kts 285°
2026-05-06 18:32 43.39867 132.16000 60 ft 10 kts 241°
2026-05-06 18:32 43.39834 132.15918 68 ft 10 kts 241°
2026-05-06 18:32 43.39802 132.15838 68 ft 9 kts 241°
2026-05-06 18:32 43.39771 132.15761 68 ft 9 kts 241°
2026-05-06 18:33 43.39724 132.15647 61 ft 19 kts 241°
2026-05-06 18:33 43.39661 132.15488 63 ft 19 kts 241°
2026-05-06 18:33 43.39598 132.15333 66 ft 18 kts 241°
2026-05-06 18:33 43.39537 132.15183 68 ft 18 kts 241°
2026-05-06 18:34 43.39479 132.15039 64 ft 17 kts 241°
2026-05-06 18:34 43.39423 132.14899 61 ft 16 kts 241°
2026-05-06 18:34 43.39369 132.14765 68 ft 16 kts 241°
2026-05-06 18:34 43.39317 132.14636 62 ft 15 kts 241°
2026-05-06 18:35 43.39267 132.14513 68 ft 15 kts 240°
2026-05-06 18:35 43.39217 132.14390 62 ft 14 kts 240°
2026-05-06 18:35 43.39169 132.14274 62 ft 14 kts 240°
2026-05-06 18:35 43.39124 132.14162 65 ft 13 kts 240°
2026-05-06 18:36 43.39080 132.14055 60 ft 13 kts 240°
2026-05-06 18:36 43.39038 132.13950 68 ft 12 kts 240°
2026-05-06 18:36 43.39009 132.13881 64 ft 12 kts 240°
2026-05-06 18:36 43.38956 132.13747 63 ft 12 kts 241°
2026-05-06 18:37 43.38930 132.13681 60 ft 12 kts 241°
2026-05-06 18:37 43.38892 132.13585 66 ft 11 kts 241°
2026-05-06 18:37 43.38855 132.13492 68 ft 11 kts 241°
2026-05-06 18:37 43.38818 132.13402 66 ft 11 kts 240°
2026-05-06 18:38 43.38780 132.13306 61 ft 11 kts 245°
2026-05-06 18:38 43.38786 132.13205 64 ft 11 kts 307°
2026-05-06 18:38 43.38837 132.13150 63 ft 9 kts 327°
2026-05-06 18:38 43.38886 132.13113 61 ft 8 kts 334°
2026-05-06 18:39 43.38937 132.13116 67 ft 7 kts 29°
2026-05-06 18:39 43.38968 132.13172 65 ft 7 kts 58°
2026-05-06 18:39 43.38972 132.13181 67 ft 0 kts 62°
2026-05-06 18:40 43.38982 132.13208 62 ft 21 kts 61°
2026-05-06 18:40 43.39173 132.13682 69 ft 91 kts 61°
2026-05-06 18:40 43.39584 132.14696 67 ft 150 kts 61°
2026-05-06 18:41 43.40126 132.16055 532 ft 160 kts 61°
2026-05-06 18:41 43.40621 132.17347 1302 ft 157 kts 60°
2026-05-06 18:41 43.41211 132.18804 1691 ft 183 kts 60°
2026-05-06 18:41 43.41865 132.20404 2074 ft 208 kts 60°
2026-05-06 18:42 43.42607 132.22223 2403 ft 226 kts 60°
2026-05-06 18:42 43.43383 132.24140 3024 ft 232 kts 60°
2026-05-06 18:42 43.44164 132.26074 3780 ft 231 kts 60°
2026-05-06 18:42 43.44956 132.28034 4399 ft 238 kts 59°
2026-05-06 18:43 43.45782 132.30085 4881 ft 250 kts 59°
2026-05-06 18:43 43.46634 132.32201 5493 ft 255 kts 59°
2026-05-06 18:43 43.47500 132.34344 6084 ft 259 kts 59°
2026-05-06 18:43 43.48436 132.36484 6659 ft 262 kts 50°
2026-05-06 18:44 43.49647 132.38392 7258 ft 266 kts 46°
2026-05-06 18:44 43.51086 132.39968 7859 ft 266 kts 26°
2026-05-06 18:44 43.52736 132.41171 8436 ft 270 kts 25°
2026-05-06 18:44 43.54406 132.42417 8985 ft 274 kts 25°
2026-05-06 18:45 43.56088 132.43685 9469 ft 277 kts 26°
2026-05-06 18:45 43.57798 132.45008 9905 ft 285 kts 26°
2026-05-06 18:45 43.59548 132.46355 10340 ft 293 kts 25°
2026-05-06 18:45 43.61376 132.47860 10495 ft 318 kts 26°
2026-05-06 18:46 43.63371 132.49442 10721 ft 342 kts 26°
2026-05-06 18:46 43.65511 132.51123 10876 ft 365 kts 26°
2026-05-06 18:46 43.67776 132.52914 11074 ft 386 kts 26°
2026-05-06 18:46 43.70144 132.54803 11499 ft 398 kts 26°
2026-05-06 18:47 43.72551 132.56740 12073 ft 403 kts 26°
2026-05-06 18:47 43.74997 132.58708 12610 ft 410 kts 26°
2026-05-06 18:47 43.77489 132.60712 13117 ft 419 kts 26°
2026-05-06 18:47 43.79997 132.62728 13979 ft 416 kts 26°
2026-05-06 18:48 43.82366 132.64957 14545 ft 430 kts 35°
2026-05-06 18:48 43.84703 132.67768 14958 ft 440 kts 39°
2026-05-06 18:48 43.86979 132.70660 15426 ft 447 kts 39°
2026-05-06 18:48 43.89252 132.73628 15986 ft 452 kts 39°
2026-05-06 18:49 43.91569 132.76584 16536 ft 454 kts 39°
2026-05-06 18:49 43.93895 132.79556 16987 ft 458 kts 39°
2026-05-06 18:49 43.96291 132.82548 17307 ft 465 kts 38°
2026-05-06 18:49 43.98725 132.85548 17747 ft 470 kts 38°
2026-05-06 18:50 44.01179 132.88567 18229 ft 473 kts 37°
2026-05-06 18:50 44.03616 132.91574 18745 ft 476 kts 37°
2026-05-06 18:50 44.06101 132.94648 19173 ft 481 kts 37°
2026-05-06 18:50 44.08648 132.97810 19563 ft 487 kts 38°
2026-05-06 18:51 44.11152 133.00925 19968 ft 491 kts 38°
2026-05-06 18:51 44.13735 133.04146 20422 ft 495 kts 38°
2026-05-06 18:51 44.16310 133.07360 20817 ft 499 kts 38°
2026-05-06 18:51 44.18910 133.10606 21189 ft 503 kts 38°
2026-05-06 18:52 44.21529 133.13758 21515 ft 506 kts 34°
2026-05-06 18:52 44.24352 133.16799 21842 ft 508 kts 32°
2026-05-06 18:52 44.27215 133.19702 22217 ft 511 kts 31°
2026-05-06 18:52 44.30085 133.22557 22541 ft 514 kts 31°
2026-05-06 18:53 44.33011 133.25477 22806 ft 520 kts 31°
2026-05-06 18:53 44.35967 133.28458 22848 ft 530 kts 31°
2026-05-06 18:53 44.38963 133.31520 23010 ft 535 kts 32°
2026-05-06 18:53 44.41967 133.34623 23308 ft 538 kts 32°
2026-05-06 18:54 44.44978 133.37752 23633 ft 540 kts 32°
2026-05-06 18:54 44.47997 133.40898 23894 ft 543 kts 32°
2026-05-06 18:54 44.51035 133.44068 24125 ft 547 kts 32°
2026-05-06 18:54 44.54090 133.47258 24386 ft 548 kts 33°
2026-05-06 18:55 44.57158 133.50463 24665 ft 550 kts 32°
2026-05-06 18:55 44.60227 133.53667 24927 ft 550 kts 32°
2026-05-06 18:55 44.63309 133.56887 25171 ft 553 kts 33°
2026-05-06 18:55 44.66402 133.60106 25462 ft 553 kts 31°
2026-05-06 18:56 44.69516 133.63325 25721 ft 557 kts 32°
2026-05-06 18:56 44.72617 133.66599 25961 ft 559 kts 32°
2026-05-06 18:56 44.75729 133.69900 26188 ft 560 kts 32°
2026-05-06 18:56 44.78852 133.73210 26467 ft 560 kts 32°
2026-05-06 18:57 44.81959 133.76498 26812 ft 559 kts 32°
2026-05-06 18:57 44.85060 133.79777 27198 ft 555 kts 32°
2026-05-06 18:57 44.88154 133.83044 27460 ft 556 kts 31°
2026-05-06 18:57 44.91255 133.86324 27687 ft 558 kts 31°
2026-05-06 18:58 44.94383 133.89590 27964 ft 558 kts 30°
2026-05-06 18:58 44.97529 133.92752 28330 ft 555 kts 29°
2026-05-06 18:58 45.00608 133.95788 28671 ft 554 kts 28°
2026-05-06 18:58 45.03853 133.98969 28980 ft 554 kts 28°
2026-05-06 18:59 45.07020 134.02084 29275 ft 554 kts 28°
2026-05-06 18:59 45.10175 134.05206 29632 ft 553 kts 28°
2026-05-06 18:59 45.13319 134.08335 30019 ft 551 kts 28°
2026-05-06 18:59 45.16451 134.11470 30340 ft 550 kts 28°
2026-05-06 19:00 45.19576 134.14608 30595 ft 551 kts 28°
2026-05-06 19:00 45.22702 134.17754 30822 ft 552 kts 27°
2026-05-06 19:00 45.25838 134.20914 30845 ft 554 kts 28°
2026-05-06 19:01 45.32112 134.27249 30854 ft 552 kts 27°
2026-05-06 19:01 45.38359 134.33573 30847 ft 551 kts 27°
2026-05-06 19:02 45.44610 134.39914 30840 ft 551 kts 27°
2026-05-06 19:02 45.50805 134.46214 30844 ft 551 kts 27°
2026-05-06 19:03 45.57042 134.52579 30846 ft 552 kts 27°
2026-05-06 19:03 45.63291 134.58970 30843 ft 552 kts 27°
2026-05-06 19:04 45.69547 134.65383 30839 ft 553 kts 28°
2026-05-06 19:04 45.75792 134.71809 30840 ft 553 kts 28°
2026-05-06 19:05 45.82049 134.78265 30827 ft 553 kts 28°
2026-05-06 19:05 45.88467 134.84107 30826 ft 536 kts 14°
2026-05-06 19:05 45.91908 134.86036 30842 ft 524 kts
2026-05-06 19:06 45.95383 134.87352 30841 ft 511 kts 359°
2026-05-06 19:06 45.98873 134.87975 30842 ft 499 kts 352°
2026-05-06 19:06 46.02325 134.88379 30832 ft 498 kts 352°
2026-05-06 19:07 46.09247 134.89178 30824 ft 499 kts 352°
2026-05-06 19:07 46.16181 134.90049 30825 ft 501 kts 352°
2026-05-06 19:08 46.23142 134.90970 30826 ft 502 kts 352°
2026-05-06 19:08 46.30050 134.91901 30818 ft 502 kts 352°
2026-05-06 19:09 46.37014 134.92839 30563 ft 503 kts 352°
2026-05-06 19:09 46.40471 134.93309 30073 ft 496 kts 352°
2026-05-06 19:09 46.43895 134.93774 29522 ft 493 kts 352°
2026-05-06 19:09 46.47313 134.94234 28951 ft 492 kts 352°
2026-05-06 19:10 46.50725 134.94689 28385 ft 493 kts 352°
2026-05-06 19:10 46.54152 134.95146 27806 ft 494 kts 353°
2026-05-06 19:10 46.57579 134.95603 27212 ft 495 kts 353°
2026-05-06 19:10 46.61008 134.96063 26621 ft 496 kts 353°
2026-05-06 19:11 46.64458 134.96527 26028 ft 502 kts 354°
2026-05-06 19:11 46.67969 134.96994 25442 ft 510 kts 354°
2026-05-06 19:11 46.71504 134.97475 24831 ft 509 kts 355°
2026-05-06 19:11 46.75004 134.97964 24237 ft 503 kts 355°
2026-05-06 19:12 46.78473 134.98443 23631 ft 497 kts 355°
2026-05-06 19:12 46.81900 134.98931 23036 ft 495 kts 357°
2026-05-06 19:12 46.85302 134.99959 22425 ft 502 kts
2026-05-06 19:12 46.88639 135.01433 21842 ft 500 kts
2026-05-06 19:13 46.91918 135.03018 21437 ft 492 kts 10°
2026-05-06 19:13 46.95134 135.04592 21096 ft 483 kts 10°
2026-05-06 19:13 46.98284 135.06098 20867 ft 486 kts
2026-05-06 19:13 47.01525 135.07596 20621 ft 490 kts
2026-05-06 19:14 47.04775 135.09072 20371 ft 487 kts
2026-05-06 19:14 47.08007 135.10523 20107 ft 484 kts
2026-05-06 19:14 47.11210 135.11951 19869 ft 480 kts
2026-05-06 19:14 47.14408 135.13374 19621 ft 478 kts
2026-05-06 19:15 47.17576 135.14787 19390 ft 475 kts
2026-05-06 19:15 47.20730 135.16199 19178 ft 472 kts 10°
2026-05-06 19:15 47.23857 135.17601 18946 ft 469 kts 10°
2026-05-06 19:15 47.26975 135.19001 18717 ft 467 kts 10°
2026-05-06 19:16 47.30074 135.20395 18498 ft 464 kts 10°
2026-05-06 19:16 47.33150 135.21782 18262 ft 461 kts 10°
2026-05-06 19:16 47.36213 135.23164 18050 ft 459 kts 11°
2026-05-06 19:16 47.39254 135.24537 17823 ft 456 kts 11°
2026-05-06 19:17 47.42285 135.25907 17598 ft 454 kts 11°
2026-05-06 19:17 47.45298 135.27271 17376 ft 451 kts 11°
2026-05-06 19:17 47.48288 135.28627 17153 ft 448 kts 11°
2026-05-06 19:17 47.51254 135.29973 16923 ft 445 kts 11°
2026-05-06 19:18 47.54204 135.31314 16695 ft 441 kts 11°
2026-05-06 19:18 47.57131 135.32644 16482 ft 440 kts 11°
2026-05-06 19:18 47.60042 135.33970 16255 ft 436 kts 12°
2026-05-06 19:18 47.62923 135.35362 16025 ft 432 kts 12°
2026-05-06 19:19 47.64857 135.36263 15866 ft 429 kts 11°
2026-05-06 19:19 47.67695 135.37532 15644 ft 426 kts 11°
2026-05-06 19:19 47.70540 135.38794 15423 ft 424 kts 11°
2026-05-06 19:19 47.73361 135.40058 15223 ft 423 kts 12°
2026-05-06 19:20 47.76162 135.41336 15022 ft 420 kts 12°
2026-05-06 19:20 47.78916 135.42602 14825 ft 419 kts 12°
2026-05-06 19:20 47.81729 135.43896 14633 ft 417 kts 12°
2026-05-06 19:20 47.84495 135.45168 14423 ft 415 kts 12°
2026-05-06 19:21 47.87250 135.46438 14224 ft 413 kts 12°
2026-05-06 19:21 47.89947 135.47686 14012 ft 400 kts 12°
2026-05-06 19:21 47.92531 135.48893 13795 ft 387 kts 13°
2026-05-06 19:21 47.95046 135.50102 13597 ft 374 kts 12°
2026-05-06 19:22 47.97530 135.51247 13382 ft 363 kts 11°
2026-05-06 19:22 47.99911 135.52333 13176 ft 354 kts 11°
2026-05-06 19:22 48.02207 135.53380 12972 ft 345 kts 11°
2026-05-06 19:22 48.04499 135.54430 12759 ft 337 kts 11°
2026-05-06 19:23 48.06711 135.55450 12555 ft 328 kts 11°
2026-05-06 19:23 48.08869 135.56447 12349 ft 321 kts 11°
2026-05-06 19:23 48.10958 135.57415 12146 ft 315 kts 11°
2026-05-06 19:23 48.13028 135.58375 11939 ft 308 kts 11°
2026-05-06 19:24 48.15055 135.59317 11733 ft 302 kts 11°
2026-05-06 19:24 48.17049 135.60245 11526 ft 297 kts 11°
2026-05-06 19:24 48.18999 135.61152 11323 ft 292 kts 11°
2026-05-06 19:24 48.20919 135.62045 11116 ft 287 kts 11°
2026-05-06 19:25 48.22810 135.62924 10910 ft 283 kts 11°
2026-05-06 19:25 48.24676 135.63794 10707 ft 280 kts 11°
2026-05-06 19:25 48.26530 135.64661 10512 ft 278 kts 12°
2026-05-06 19:25 48.28365 135.65518 10303 ft 276 kts 12°
2026-05-06 19:26 48.30189 135.66371 10110 ft 273 kts 12°
2026-05-06 19:26 48.32002 135.67219 9909 ft 272 kts 12°
2026-05-06 19:26 48.33810 135.68068 9710 ft 271 kts 13°
2026-05-06 19:26 48.35607 135.68911 9507 ft 271 kts 13°
2026-05-06 19:27 48.37406 135.69753 9313 ft 270 kts 13°
2026-05-06 19:27 48.39178 135.70585 9118 ft 270 kts 13°
2026-05-06 19:27 48.40973 135.71431 8916 ft 270 kts 13°
2026-05-06 19:27 48.42766 135.72274 8717 ft 270 kts 13°
2026-05-06 19:28 48.44556 135.73116 8516 ft 269 kts 13°
2026-05-06 19:28 48.46343 135.73957 8316 ft 270 kts 14°
2026-05-06 19:28 48.48135 135.74803 8118 ft 270 kts 14°
2026-05-06 19:28 48.49928 135.75648 7922 ft 269 kts 14°
2026-05-06 19:29 48.51717 135.76493 7720 ft 269 kts 14°
2026-05-06 19:29 48.53505 135.77338 7521 ft 269 kts 14°
2026-05-06 19:29 48.55291 135.78183 7320 ft 268 kts 14°
2026-05-06 19:29 48.57070 135.79025 7121 ft 268 kts 14°
2026-05-06 19:30 48.58851 135.79869 6924 ft 267 kts 14°
2026-05-06 19:30 48.60607 135.80702 6811 ft 264 kts 14°
2026-05-06 19:30 48.62376 135.81540 6784 ft 267 kts 14°
2026-05-06 19:30 48.64140 135.82379 6772 ft 265 kts 14°
2026-05-06 19:31 48.65895 135.83213 6771 ft 264 kts 14°
2026-05-06 19:31 48.67657 135.83887 6768 ft 260 kts
2026-05-06 19:31 48.71228 135.83941 6764 ft 256 kts 357°
2026-05-06 19:32 48.73029 135.83952 6765 ft 261 kts 357°
2026-05-06 19:32 48.74843 135.83982 6756 ft 261 kts 358°
2026-05-06 19:32 48.76658 135.84025 6748 ft 260 kts 358°
2026-05-06 19:32 48.78463 135.84074 6753 ft 259 kts 358°
2026-05-06 19:33 48.80242 135.84123 6753 ft 259 kts 358°
2026-05-06 19:33 48.82040 135.84090 6742 ft 257 kts 348°
2026-05-06 19:33 48.83665 135.83094 6772 ft 252 kts 327°
2026-05-06 19:33 48.85174 135.81732 6763 ft 253 kts 327°
2026-05-06 19:34 48.86691 135.80372 6758 ft 254 kts 327°
2026-05-06 19:34 48.88215 135.79011 6759 ft 254 kts 328°
2026-05-06 19:34 48.89738 135.77646 6758 ft 254 kts 328°
2026-05-06 19:34 48.91259 135.76272 6761 ft 254 kts 326°
2026-05-06 19:35 48.92468 135.74423 6765 ft 241 kts 302°
2026-05-06 19:35 48.93337 135.72324 6751 ft 229 kts 302°
2026-05-06 19:35 48.94196 135.70304 6755 ft 227 kts 302°
2026-05-06 19:35 48.95052 135.68294 6755 ft 225 kts 302°
2026-05-06 19:36 48.95905 135.66294 6761 ft 225 kts 302°
2026-05-06 19:36 48.96755 135.64299 6764 ft 224 kts 302°
2026-05-06 19:36 48.97603 135.62302 6761 ft 224 kts 301°
2026-05-06 19:36 48.98127 135.60092 6760 ft 223 kts 277°
2026-05-06 19:37 48.98298 135.57737 6763 ft 224 kts 277°
2026-05-06 19:37 48.98486 135.55381 6765 ft 225 kts 277°
2026-05-06 19:37 48.98679 135.53011 6762 ft 226 kts 277°
2026-05-06 19:37 48.98861 135.50634 6761 ft 227 kts 273°
2026-05-06 19:38 48.98519 135.48301 6666 ft 232 kts 242°
2026-05-06 19:38 48.97376 135.46582 6412 ft 233 kts 210°
2026-05-06 19:38 48.95829 135.46004 6157 ft 229 kts 182°
2026-05-06 19:38 48.94276 135.46282 5945 ft 220 kts 172°
2026-05-06 19:39 48.92796 135.46679 5741 ft 211 kts 172°
2026-05-06 19:39 48.91363 135.47069 5549 ft 208 kts 172°
2026-05-06 19:39 48.89924 135.47454 5451 ft 211 kts 172°
2026-05-06 19:39 48.88475 135.47838 5408 ft 211 kts 172°
2026-05-06 19:40 48.87035 135.48218 5408 ft 209 kts 172°
2026-05-06 19:40 48.85599 135.48593 5397 ft 210 kts 172°
2026-05-06 19:40 48.84165 135.48964 5399 ft 210 kts 172°
2026-05-06 19:40 48.82725 135.49335 5400 ft 209 kts 172°
2026-05-06 19:41 48.81291 135.49702 5393 ft 209 kts 172°
2026-05-06 19:41 48.79857 135.50071 5404 ft 209 kts 172°
2026-05-06 19:41 48.78429 135.50436 5397 ft 208 kts 172°
2026-05-06 19:41 48.76999 135.50792 5399 ft 208 kts 176°
2026-05-06 19:42 48.75614 135.50436 5248 ft 204 kts 216°
2026-05-06 19:42 48.74665 135.48962 5043 ft 192 kts 231°
2026-05-06 19:42 48.73717 135.47575 4834 ft 185 kts 224°
2026-05-06 19:42 48.72767 135.46305 4591 ft 179 kts 224°
2026-05-06 19:43 48.71838 135.45057 4389 ft 179 kts 224°
2026-05-06 19:43 48.70912 135.43800 4176 ft 178 kts 224°
2026-05-06 19:43 48.69987 135.42542 3962 ft 178 kts 224°
2026-05-06 19:43 48.69058 135.41277 3768 ft 181 kts 223°
2026-05-06 19:44 48.68121 135.40003 3530 ft 180 kts 223°
2026-05-06 19:44 48.67196 135.38740 3313 ft 177 kts 223°
2026-05-06 19:44 48.66285 135.37498 3104 ft 176 kts 223°
2026-05-06 19:44 48.65365 135.36242 2896 ft 176 kts 223°
2026-05-06 19:45 48.64463 135.35012 2688 ft 177 kts 223°
2026-05-06 19:45 48.63552 135.33771 2474 ft 175 kts 223°
2026-05-06 19:45 48.62671 135.32570 2280 ft 161 kts 223°
2026-05-06 19:45 48.61879 135.31490 2116 ft 149 kts 223°
2026-05-06 19:46 48.61115 135.30447 1903 ft 146 kts 223°
2026-05-06 19:46 48.60367 135.29424 1730 ft 143 kts 224°
2026-05-06 19:46 48.59629 135.28416 1566 ft 143 kts 223°
2026-05-06 19:46 48.58890 135.27408 1395 ft 142 kts 223°
2026-05-06 19:47 48.58159 135.26409 1224 ft 141 kts 223°
2026-05-06 19:47 48.57430 135.25414 1056 ft 141 kts 223°
2026-05-06 19:47 48.56704 135.24422 888 ft 141 kts 223°
2026-05-06 19:47 48.55975 135.23427 721 ft 141 kts 223°
2026-05-06 19:48 48.55242 135.22425 550 ft 141 kts 223°
2026-05-06 19:48 48.54516 135.21434 383 ft 140 kts 222°
2026-05-06 19:48 48.53793 135.20445 244 ft 138 kts 222°
2026-05-06 19:48 48.53159 135.19583 236 ft 103 kts 222°
2026-05-06 19:49 48.52731 135.19001 236 ft 65 kts 222°
2026-05-06 19:49 48.52456 135.18626 236 ft 48 kts 222°
2026-05-06 19:49 48.52221 135.18306 236 ft 43 kts 222°
2026-05-06 19:49 48.52130 135.18075 240 ft 20 kts 310°
2026-05-06 19:50 48.52211 135.17914 234 ft 18 kts 311°
2026-05-06 19:50 48.52293 135.17770 233 ft 18 kts 312°
2026-05-06 19:50 48.52375 135.17637 235 ft 17 kts 311°
2026-05-06 19:50 48.52452 135.17508 236 ft 16 kts 312°
2026-05-06 19:51 48.52511 135.17370 235 ft 16 kts 281°
2026-05-06 19:51 48.52560 135.17259 236 ft 8 kts 314°
2026-05-06 19:51 48.52564 135.17252 234 ft 0 kts 314°